TimeEST,TemperatureF,Dew PointF,Humidity,Sea Level PressureIn,VisibilityMPH,Wind Direction,Wind SpeedMPH,Gust SpeedMPH,PrecipitationIn,Events,Conditions,WindDirDegrees,DateUTC
12:54 AM,39.9,30.9,70,29.75,10.0,NW,15.0,19.6,N/A,,Overcast,320,2012-11-09 05:54:00
1:54 AM,39.9,30.9,70,29.77,10.0,NW,19.6,25.3,N/A,,Overcast,320,2012-11-09 06:54:00
2:54 AM,39.9,30.0,68,29.78,10.0,NW,16.1,24.2,N/A,,Overcast,310,2012-11-09 07:54:00
3:54 AM,39.0,30.0,70,29.79,10.0,NW,15.0,23.0,N/A,,Overcast,320,2012-11-09 08:54:00
4:54 AM,39.0,28.9,67,29.82,10.0,NW,10.4,28.8,N/A,,Mostly Cloudy,310,2012-11-09 09:54:00
5:54 AM,37.9,28.9,70,29.84,10.0,NW,16.1,24.2,N/A,,Partly Cloudy,320,2012-11-09 10:54:00
6:54 AM,39.0,28.9,67,29.86,10.0,NW,11.5,24.2,N/A,,Scattered Clouds,320,2012-11-09 11:54:00
7:54 AM,39.9,28.9,65,29.89,10.0,NW,16.1,24.2,N/A,,Scattered Clouds,320,2012-11-09 12:54:00
8:54 AM,43.0,28.9,58,29.89,10.0,NNW,15.0,24.2,N/A,,Partly Cloudy,330,2012-11-09 13:54:00
9:54 AM,45.0,30.0,56,29.91,10.0,NW,12.7,-,N/A,,Partly Cloudy,310,2012-11-09 14:54:00
10:54 AM,48.0,30.0,50,29.92,10.0,NNW,16.1,23.0,N/A,,Partly Cloudy,330,2012-11-09 15:54:00
11:54 AM,50.0,28.9,44,29.92,10.0,WNW,11.5,20.7,N/A,,Partly Cloudy,300,2012-11-09 16:54:00
12:54 PM,52.0,26.1,37,29.91,10.0,NW,10.4,21.9,N/A,,Partly Cloudy,320,2012-11-09 17:54:00
1:54 PM,52.0,21.0,30,29.92,10.0,NNW,18.4,24.2,N/A,,Partly Cloudy,330,2012-11-09 18:54:00
2:54 PM,53.1,21.0,29,29.94,10.0,NW,17.3,28.8,N/A,,Partly Cloudy,320,2012-11-09 19:54:00
3:54 PM,52.0,21.0,30,29.96,10.0,NW,12.7,-,N/A,,Partly Cloudy,310,2012-11-09 20:54:00
4:54 PM,50.0,21.9,33,30.00,10.0,NW,11.5,-,N/A,,Clear,320,2012-11-09 21:54:00
5:54 PM,48.0,21.9,36,30.03,10.0,WNW,10.4,-,N/A,,Clear,300,2012-11-09 22:54:00
6:54 PM,46.9,24.1,41,30.06,10.0,NW,11.5,-,N/A,,Clear,310,2012-11-09 23:54:00
7:54 PM,46.0,24.1,42,30.06,10.0,WNW,6.9,-,N/A,,Clear,300,2012-11-10 00:54:00
8:54 PM,45.0,24.1,44,30.09,10.0,WNW,9.2,-,N/A,,Clear,290,2012-11-10 01:54:00
9:54 PM,44.1,24.1,45,30.09,10.0,WNW,9.2,-,N/A,,Clear,290,2012-11-10 02:54:00
10:54 PM,44.1,25.0,47,30.09,10.0,WNW,6.9,-,N/A,,Clear,290,2012-11-10 03:54:00
11:54 PM,44.1,26.1,49,30.10,10.0,WNW,10.4,-,N/A,,Clear,290,2012-11-10 04:54:00